Change the Weather History Date:

Saturday, March 2, 2013

  Actual Average Record
Temperature  
Mean Temperature 38 °F -  
Max Temperature 42 °F 43 °F 66 °F (1972)
Min Temperature 34 °F 23 °F 5 °F (1980)
Degree Days  
Heating Degree Days 27    
Moisture  
Dew Point 26 °F    
Average Humidity 64    
Maximum Humidity 76    
Minimum Humidity 51    
Precipitation  
Precipitation 0.00 in - - ()
Sea Level Pressure  
Sea Level Pressure 29.65 in    
Wind  
Wind Speed 6 mph (NNW)    
Max Wind Speed 10 mph    
Max Gust Speed -    
Visibility 10 miles    
Events      
Averages and records for this station are not official NWS values.
T = Trace of Precipitation, MM = Missing Value Source: NWS Daily Summary

Daily Weather History Graph

Daily Weather History Graph

Search for Another Location

Airport or City:

Trip Planner

Search our weather history database for the weather conditions in past years. The results will help you decide how hot, cold, wet, or windy it might be!

Date:

Astronomy

Mar. 02, 2013 Rise Set
Actual Time 6:15 AM EST 5:34 PM EST
Civil Twilight 5:48 AM EST 6:02 PM EST
Nautical Twilight 5:15 AM EST 6:34 PM EST
Astronomical Twilight 4:43 AM EST 7:07 PM EST
Moon 11:16 PM EST (3/2) 8:36 AM EST (3/2)
Length of Visible Light 12h 14m
Length of Day
11h 18m
Waning Gibbous, 74% of the Moon is Illuminated
Mar 2
Waning Gibbous
Mar 4
Last Quarter
Mar 11
New
Mar 19
First Quarter
Mar 27
Full

Hourly Weather History & Observations

Time (EST) Temp. Windchill Dew Point Humidity Pressure Visibility Wind Dir Wind Speed Gust Speed Precip Events Conditions
12:52 AM 36.0 °F 32.1 °F 27.0 °F 70% 29.66 in 10.0 mi NW 4.6 mph - N/A   Overcast
1:52 AM 36.0 °F 31.1 °F 26.1 °F 67% 29.65 in 10.0 mi NW 5.8 mph - N/A   Overcast
2:52 AM 35.1 °F 29.3 °F 26.1 °F 70% 29.65 in 10.0 mi NW 6.9 mph - N/A   Overcast
3:52 AM 35.1 °F 27.9 °F 26.1 °F 70% 29.65 in 10.0 mi WNW 9.2 mph - N/A   Overcast
4:52 AM 35.1 °F 27.9 °F 25.0 °F 67% 29.66 in 10.0 mi NW 9.2 mph - N/A   Overcast
5:52 AM 35.1 °F 28.6 °F 25.0 °F 67% 29.66 in 10.0 mi WNW 8.1 mph - N/A   Overcast
6:52 AM 34.0 °F 28.8 °F 25.0 °F 70% 29.67 in 10.0 mi WNW 5.8 mph - N/A   Overcast
7:52 AM 36.0 °F 31.1 °F 25.0 °F 64% 29.68 in 10.0 mi WNW 5.8 mph - N/A   Clear
8:52 AM 37.9 °F 31.5 °F 25.0 °F 60% 29.68 in 10.0 mi NW 9.2 mph - N/A   Partly Cloudy
9:52 AM 39.0 °F 32.3 °F 24.1 °F 55% 29.67 in 10.0 mi NNW 10.4 mph - N/A   Mostly Cloudy
10:52 AM 42.1 °F 36.1 °F 27.0 °F 55% 29.65 in 10.0 mi North 10.4 mph - N/A   Scattered Clouds
11:52 AM 41.0 °F 38.0 °F 24.1 °F 51% 29.64 in 10.0 mi NW 4.6 mph - N/A   Scattered Clouds
12:52 PM 42.1 °F 40.2 °F 27.0 °F 55% 29.62 in 10.0 mi ENE 3.5 mph - N/A   Overcast
1:52 PM 41.0 °F 35.8 °F 27.0 °F 57% 29.63 in 10.0 mi NE 8.1 mph - N/A   Overcast
2:52 PM 39.9 °F 35.8 °F 27.0 °F 60% 29.63 in 10.0 mi ENE 5.8 mph - N/A   Overcast
3:52 PM 39.9 °F 37.8 °F 27.0 °F 60% 29.63 in 10.0 mi East 3.5 mph - N/A   Overcast
4:52 PM 39.9 °F 37.8 °F 27.0 °F 60% 29.63 in 10.0 mi ENE 3.5 mph - N/A   Overcast
5:52 PM 39.0 °F - 27.0 °F 62% 29.65 in 10.0 mi Calm Calm - N/A   Overcast
6:52 PM 37.9 °F - 28.0 °F 68% 29.65 in 10.0 mi Calm Calm - N/A   Overcast
7:52 PM 37.0 °F - 28.0 °F 70% 29.65 in 10.0 mi Calm Calm - N/A   Overcast
8:52 PM 37.0 °F - 28.0 °F 70% 29.65 in 10.0 mi Calm Calm - N/A   Overcast
9:52 PM 36.0 °F - 28.9 °F 76% 29.65 in 10.0 mi Calm Calm - N/A   Overcast
10:52 PM 37.0 °F 31.6 °F 27.0 °F 67% 29.63 in 10.0 mi NNW 6.9 mph - N/A   Overcast
11:52 PM 37.0 °F 33.3 °F 26.1 °F 65% 29.63 in 10.0 mi NW 4.6 mph - N/A   Overcast